Missoula, MT

4:29 AM MDT on March 24, 2017 (GMT -0600)
Missoula International

Weather History for KMSO - February, 2014

Change the Weather History Date:

Thursday, February 13, 2014

  Actual Average Record
Temperature  
Mean Temperature 36 °F 29 °F  
Max Temperature 42 °F 38 °F 57 °F (1924)
Min Temperature 29 °F 21 °F -20 °F (1895)
Degree Days  
Heating Degree Days 29 36  
Month to date heating degree days 648 475  
Since 1 July heating degree days 4907 4864  
Cooling Degree Days 0 0  
Month to date cooling degree days 0 0  
Year to date cooling degree days 0 0  
Moisture  
Dew Point 30 °F    
Average Humidity 77    
Maximum Humidity 100    
Minimum Humidity 53    
Precipitation  
Precipitation 0.05 in 0.03 in 0.23 in (1984)
Month to date precipitation 0.55 0.32  
Year to date precipitation 1.43 1.17  
Snow  
Snow T in - - ()
Month to date snowfall 10.3  
Year to date snowfall 16.8  
Since 1 July snowfall 30.7  
Snow Depth 4.00 in    
Sea Level Pressure  
Sea Level Pressure 29.90 in    
Wind  
Wind Speed 8 mph (NW)    
Max Wind Speed 38 mph    
Max Gust Speed 46 mph    
Visibility 9 miles    
Events Rain , Snow    
T = Trace of Precipitation, MM = Missing Value Source: NWS Daily Summary

Daily Weather History Graph

Daily Weather History Graph

Search for Another Location

Airport or City:

Trip Planner

Search our weather history database for the weather conditions in past years. The results will help you decide how hot, cold, wet, or windy it might be!

Date:

Astronomy

Feb. 13, 2014 Rise Set
Actual Time 7:43 AM MST 5:58 PM MST
Civil Twilight 7:12 AM MST 6:29 PM MST
Nautical Twilight 6:36 AM MST 7:05 PM MST
Astronomical Twilight 6:01 AM MST 7:40 PM MST
Moon 5:10 PM MST (2/13) 6:40 AM MST (2/13)
Length of Visible Light 11h 17m
Length of Day
10h 14m
Waxing Gibbous, 99% of the Moon is Illuminated
Feb 13
Waxing Gibbous
Feb 14
Full
Feb 22
Last Quarter
Mar 1
New
Mar 8
First Quarter

Hourly Weather History & Observations

Time (MST) Temp. Windchill Dew Point Humidity Pressure Visibility Wind Dir Wind Speed Gust Speed Precip Events Conditions
12:53 AM 32.0 °F 28.7 °F 26.1 °F 79% 29.83 in 10.0 mi Variable 3.5 mph - N/A   Clear
1:53 AM 34.0 °F 29.8 °F 28.0 °F 79% 29.80 in 10.0 mi East 4.6 mph - N/A   Overcast
2:04 AM 35.1 °F 29.3 °F 30.0 °F 82% 29.75 in 7.0 mi SE 6.9 mph - 0.00 in Rain Light Rain
2:53 AM 35.1 °F - 32.0 °F 89% 29.79 in 10.0 mi Calm Calm - 0.01 in   Mostly Cloudy
3:53 AM 33.1 °F 30.0 °F 30.9 °F 92% 29.77 in 10.0 mi WNW 3.5 mph - N/A   Overcast
4:53 AM 37.9 °F 33.5 °F 33.1 °F 83% 29.73 in 10.0 mi ESE 5.8 mph - 0.01 in Rain Light Rain
5:53 AM 37.9 °F 30.9 °F 34.0 °F 86% 29.72 in 10.0 mi SE 10.4 mph - 0.00 in Rain Light Rain
6:53 AM 34.0 °F - 33.1 °F 96% 29.75 in 10.0 mi Calm Calm - 0.02 in Rain Light Rain
7:09 AM 33.1 °F 27.7 °F 32.0 °F 96% 29.70 in 10.0 mi SW 5.8 mph - 0.00 in Rain Light Rain
7:53 AM 34.0 °F 31.0 °F 33.1 °F 96% 29.78 in 9.0 mi NE 3.5 mph - 0.00 in   Overcast
8:53 AM 37.9 °F 30.9 °F 33.1 °F 83% 29.81 in 10.0 mi WNW 10.4 mph - N/A   Mostly Cloudy
9:53 AM 39.0 °F 29.9 °F 33.1 °F 79% 29.85 in 10.0 mi NNW 17.3 mph 23.0 mph 0.00 in   Mostly Cloudy
10:36 AM 39.9 °F 33.4 °F 33.1 °F 77% 29.81 in 10.0 mi NW 10.4 mph - N/A   Mostly Cloudy
10:53 AM 39.9 °F 31.4 °F 32.0 °F 73% 29.86 in 10.0 mi NNW 16.1 mph - N/A   Mostly Cloudy
11:53 AM 41.0 °F 32.8 °F 28.9 °F 62% 29.89 in 10.0 mi NW 16.1 mph 23.0 mph 0.00 in   Mostly Cloudy
12:53 PM 41.0 °F 34.3 °F 28.9 °F 62% 29.89 in 10.0 mi NNW 11.5 mph 27.6 mph N/A   Mostly Cloudy
1:53 PM 42.1 °F 34.2 °F 27.0 °F 55% 29.91 in 10.0 mi NW 16.1 mph 21.9 mph N/A   Overcast
2:53 PM 39.9 °F 31.1 °F 28.0 °F 63% 29.92 in 10.0 mi NNW 17.3 mph 28.8 mph N/A   Overcast
3:30 PM 37.0 °F 23.1 °F 28.0 °F 70% 29.90 in 2.5 mi West 38.0 mph 46.0 mph 0.00 in Snow Light Snow
3:46 PM 36.0 °F 23.5 °F 30.0 °F 79% 29.91 in 9.0 mi WNW 27.6 mph 34.5 mph 0.00 in Snow Light Snow
3:53 PM 36.0 °F 25.0 °F 30.0 °F 79% 29.99 in 8.0 mi NW 20.7 mph 34.5 mph 0.00 in Snow Light Snow
4:00 PM 35.1 °F 23.8 °F 30.0 °F 82% 29.91 in 9.0 mi NW 20.7 mph 32.2 mph 0.00 in   Overcast
4:07 PM 36.0 °F 26.0 °F 30.0 °F 79% 29.92 in 10.0 mi NNW 17.3 mph 29.9 mph 0.00 in   Overcast
4:53 PM 35.1 °F 26.9 °F 30.9 °F 85% 30.01 in 10.0 mi NW 11.5 mph - 0.00 in   Overcast
5:04 PM 34.0 °F 26.0 °F 30.9 °F 89% 29.96 in 3.0 mi NNW 10.4 mph - 0.00 in Snow Light Snow
5:53 PM 34.0 °F 28.8 °F 32.0 °F 92% 30.04 in 8.0 mi WNW 5.8 mph - 0.00 in Snow Light Snow
6:25 PM 33.1 °F 27.7 °F 30.9 °F 92% 29.96 in 9.0 mi West 5.8 mph - 0.01 in   Mostly Cloudy
6:53 PM 33.1 °F 26.1 °F 30.9 °F 92% 30.06 in 10.0 mi East 8.1 mph - 0.01 in   Partly Cloudy
7:53 PM 36.0 °F 33.3 °F 28.0 °F 73% 30.08 in 10.0 mi NNE 3.5 mph - N/A   Overcast
8:53 PM 33.1 °F 27.7 °F 30.0 °F 89% 30.08 in 10.0 mi SSE 5.8 mph - N/A   Overcast
9:53 PM 30.9 °F 26.2 °F 28.9 °F 92% 30.10 in 10.0 mi SSE 4.6 mph - N/A   Scattered Clouds
10:53 PM 30.0 °F - 27.0 °F 88% 30.11 in 10.0 mi Calm Calm - N/A   Clear
11:53 PM 30.0 °F 23.2 °F 26.1 °F 85% 30.11 in 10.0 mi ESE 6.9 mph - N/A   Scattered Clouds